Vorticity
5 5 5 4 6 7 7 8 7 6 5 4 3 3 -0 -0 -2 0 2 2 3 4 3 3 1 2 8 9 9 11 6 4 4
8 9 9 8 8 7 7 6 7 3 4 4 3 3 3 2 3 4 3 3 4 5 3 2 2 4 2 2 5 11 9 10 4
10 9 8 7 6 5 5 4 5 5 5 4 4 4 5 6 7 6 6 6 6 6 3 5 4 2 4 4 3 2 9 9 12
8 8 6 4 6 5 5 5 5 5 5 5 5 3 5 6 5 3 4 6 7 6 7 7 6 4 5 4 4 4 2 4 10
8 5 6 5 6 7 7 7 6 6 4 2 7 8 3 5 5 3 3 2 0 0 1 -6 5 8 6 6 5 5 3 2 2
6 5 3 3 5 8 8 9 6 3 1 2 5 5 2 3 2 4 6 -0 -2 0 3 -0 1 3 5 7 6 4 8 3 3
6 6 6 6 8 6 6 5 5 4 2 4 4 5 1 3 1 5 -6 1 3 -0 0 5 3 3 0 1 11 4 6 9 5
8 8 6 6 8 7 7 5 6 6 5 3 3 2 4 3 4 2 2 -1 -1 0 4 0 1 2 -0 -0 5 2 2 -3 9
9 7 6 9 8 8 8 6 6 6 3 2 2 3 4 6 3 -4 -0 -0 -4 -2 -2 2 0 -1 -0 -1 3 1 3 10 -10
8 8 9 8 9 10 11 4 2 7 6 3 3 3 6 5 1 -0 -3 -0 0 4 7 2 3 -1 7 2 1 -0 3 3 4
10 8 8 8 12 9 6 5 7 8 6 3 2 0 0 -2 -0 2 2 4 0 2 5 -1 0 -3 -4 5 1 -4 2 4 1
9 6 8 9 11 7 4 9 8 4 4 3 2 2 -0 4 6 5 2 0 2 2 5 4 -3 8 9 11 -0 2 9 -3 10
10 11 11 10 11 7 7 7 6 4 3 4 3 4 2 1 -0 3 5 6 7 6 10 9 8 -2 5 9 -7 -2 -0 7 -2
5 8 11 10 7 8 7 7 6 5 4 2 1 1 3 3 3 5 8 7 4 6 5 7 14 39 57 65 66 70 46 38 19
10 6 3 4 6 7 6 5 4 4 3 3 3 0 4 5 7 5 1 0 13 27 55 50 47 40 37 41 45 48 58 41 71
10 12 11 9 8 8 6 4 3 3 3 4 4 4 5 4 2 -1 12 32 45 47 27 27 28 25 34 31 26 30 25 23 33
3 5 9 11 9 6 5 3 3 3 4 4 4 10 -0 -0 1 15 34 41 33 18 23 17 17 17 19 15 20 22 26 30 6
8 11 11 7 8 6 5 3 4 4 5 4 9 4 4 8 10 42 40 39 27 19 14 10 15 21 14 15 20 23 17 30 12
13 7 6 8 8 7 3 4 4 5 5 4 0 -2 9 29 42 46 39 37 38 23 14 8 14 15 18 11 18 23 20 17 39
6 5 8 9 6 2 5 3 5 8 5 1 1 4 28 39 28 24 36 34 42 29 13 11 12 16 13 12 16 23 20 15 31
Height
5820 5820 5819 5817 5816 5816 5815 5814 5814 5813 5812 5812 5812 5812 5811 5811 5811 5811 5810 5809 5809 5809 5808 5809 5809 5809 5810 5810 5812 5812 5813 5815 5816
5815 5814 5813 5812 5811 5810 5810 5809 5808 5808 5808 5807 5807 5806 5806 5805 5805 5805 5804 5804 5804 5803 5802 5801 5802 5803 5803 5804 5805 5806 5807 5808 5810
5810 5809 5808 5807 5806 5805 5804 5803 5802 5801 5801 5801 5800 5799 5798 5798 5798 5798 5797 5796 5797 5797 5797 5796 5796 5796 5796 5797 5797 5798 5799 5801 5803
5804 5803 5802 5801 5800 5799 5798 5797 5796 5795 5794 5793 5793 5792 5791 5791 5790 5789 5789 5789 5788 5788 5788 5789 5789 5789 5788 5789 5789 5790 5792 5793 5795
5799 5798 5796 5795 5794 5792 5791 5790 5788 5788 5787 5787 5786 5784 5783 5783 5782 5781 5780 5779 5779 5779 5779 5779 5780 5780 5780 5781 5781 5782 5783 5784 5785
5794 5792 5790 5789 5787 5786 5784 5782 5781 5780 5779 5777 5776 5775 5774 5773 5771 5770 5769 5768 5768 5767 5767 5768 5767 5768 5769 5770 5771 5772 5773 5775 5775
5786 5785 5783 5781 5779 5777 5776 5774 5772 5771 5770 5768 5766 5765 5763 5762 5760 5759 5758 5757 5755 5754 5754 5754 5754 5754 5756 5758 5759 5760 5761 5763 5766
5779 5777 5775 5772 5770 5768 5766 5765 5763 5761 5759 5757 5755 5753 5751 5749 5747 5746 5744 5742 5741 5740 5739 5738 5738 5739 5740 5741 5743 5746 5748 5750 5753
5771 5769 5766 5763 5760 5758 5756 5754 5752 5750 5748 5745 5743 5740 5738 5735 5733 5731 5728 5725 5723 5722 5721 5720 5720 5719 5721 5722 5723 5727 5732 5735 5737
5764 5760 5757 5753 5750 5748 5746 5744 5742 5739 5736 5732 5730 5727 5723 5720 5716 5714 5710 5707 5704 5701 5699 5696 5695 5694 5694 5697 5701 5703 5709 5715 5719
5755 5751 5747 5743 5740 5737 5735 5733 5730 5726 5723 5720 5715 5711 5707 5702 5696 5691 5687 5683 5678 5674 5672 5670 5667 5667 5666 5665 5667 5675 5681 5688 5697
5745 5741 5737 5734 5730 5727 5724 5720 5717 5714 5709 5705 5700 5695 5688 5680 5674 5668 5663 5657 5652 5646 5641 5637 5634 5632 5632 5633 5633 5635 5645 5657 5666
5735 5731 5726 5723 5719 5715 5712 5707 5704 5699 5693 5689 5682 5674 5666 5657 5647 5640 5631 5622 5615 5607 5601 5597 5591 5588 5586 5587 5591 5596 5603 5616 5630
5724 5720 5716 5712 5707 5703 5698 5693 5687 5682 5676 5669 5662 5652 5642 5631 5620 5610 5600 5588 5577 5569 5563 5555 5546 5537 5532 5530 5535 5544 5553 5568 5587
5713 5708 5704 5699 5694 5688 5683 5677 5670 5662 5655 5648 5639 5630 5619 5606 5592 5581 5568 5553 5536 5521 5510 5505 5500 5495 5492 5492 5495 5502 5511 5524 5544
5701 5696 5690 5685 5679 5674 5667 5660 5652 5643 5632 5624 5617 5609 5596 5579 5563 5545 5529 5511 5495 5486 5477 5471 5471 5470 5470 5470 5472 5476 5483 5495 5512
5689 5683 5677 5670 5665 5658 5650 5641 5633 5623 5609 5597 5587 5583 5582 5557 5536 5509 5491 5473 5465 5458 5455 5450 5450 5451 5453 5454 5454 5457 5464 5475 5488
5677 5670 5663 5656 5649 5642 5633 5624 5614 5604 5591 5573 5553 5543 5532 5519 5514 5481 5459 5438 5434 5433 5431 5431 5433 5435 5436 5438 5439 5442 5447 5456 5469
5664 5657 5650 5642 5635 5627 5618 5608 5597 5583 5572 5556 5533 5506 5476 5454 5448 5454 5427 5409 5408 5409 5410 5414 5417 5420 5421 5423 5425 5429 5433 5442 5452
5651 5644 5637 5629 5621 5612 5602 5591 5578 5563 5549 5532 5513 5489 5458 5428 5405 5404 5409 5389 5386 5387 5392 5398 5402 5406 5409 5411 5414 5417 5422 5429 5439